Regional Weather Roundup
Issued by NWS

Home | Current Version | Previous Version | Graphics & Text | Print | Product List | Glossary On
Versions: 1 2 3 4 5 6 7 8 9 10 11 12 13 14 15 16 17 18 19 20 21 22 23 24 25 26 27 28 29 30 31 32 33 34 35 36 37 38 39 40 41 42 43 44 45 46 47 48 49 50
000
ASUS43 KFSD 042302
RWRSD

WEATHER ROUNDUP FOR SOUTH DAKOTA
NATIONAL WEATHER SERVICE SIOUX FALLS SD
600 PM CDT TUE AUG 04 2015

NOTE: "FAIR" INDICATES FEW OR NO CLOUDS BELOW 12,000 FEET WITH NO
SIGNIFICANT WEATHER AND/OR OBSTRUCTIONS TO VISIBILITY.


SDZ001>005-009-010-012>017-050000-
NORTHWEST AND NORTH CENTRAL SOUTH DAKOTA

CITY           SKY/WX    TMP DP  RH WIND       PRES   REMARKS
FAITH            N/A     84  52  33 SE15      29.93F
MOBRIDGE       MOSUNNY   86  60  41 SE15      29.92F
$$

SDZ012>016-024>037-041>051-057-063-072>074-050000-
SOUTHWEST AND SOUTH CENTRAL SOUTH DAKOTA

CITY           SKY/WX    TMP DP  RH WIND       PRES   REMARKS
RAPID CTY ARPT PTSUNNY   85  58  39 S14G20    29.94S
PIERRE         PTSUNNY   83  57  41 SE17      29.91F
CUSTER         MOSUNNY   75  54  47 S7G22     30.08S
ELLSWORTH AFB  MOSUNNY   83  60  45 S9        29.93S
PHILIP         PTSUNNY   81  65  58 SE10      29.92S
PINE RIDGE     MOSUNNY   82  60  47 SE7       29.96F
WINNER         FAIR      83  62  49 SE15      29.94S
$$

SDZ004>011-016>023-039-040-050000-
NORTHEAST SOUTH DAKOTA

CITY           SKY/WX    TMP DP  RH WIND       PRES   REMARKS
ABERDEEN       MOSUNNY   82  56  40 E6        29.97S
WATERTOWN      PTSUNNY   79  56  45 S6        30.00S
BROOKINGS      PTSUNNY   75  61  60 SE8       30.01F
$$

SDZ017-020-022-023-036>040-048>070-050000-
SOUTHEAST SOUTH DAKOTA

CITY           SKY/WX    TMP DP  RH WIND       PRES   REMARKS
SIOUX FALLS    CLOUDY    78  63  59 E9        29.98F
HURON          PTSUNNY   80  63  55 SE12      29.95F
MITCHELL       MOSUNNY   81  63  54 SE10      29.95F
YANKTON        MOSUNNY   79  64  61 E6        29.95S
$$

ABBREVIATIONS USED IN REMARKS
   TC - TEMPERATURE IN CELSIUS
  WCI - WIND CHILL INDEX
   HX - HEAT INDEX
  VSB - VISIBILITY




USA.gov is the U.S. government's official web portal to all federal, state and local government web resources and services.